Location: Brno
(49.2000°N, 16.6330°E)
Time: 10:33:35
(UTC+02:00)

Iridium 2 - Visible Passes

Search period start: 02 September 2015 00:00
Search period end: 12 September 2015 00:00
Orbit: 520 x 533 km, 85.5° (Epoch: 01 September)

Date Brightness Start Highest point End Pass type
(mag) Time Alt. Az. Time Alt. Az. Time Alt. Az.
02 Sep 6.8 05:13:57 10° SE 05:16:37 19° E 05:19:24 10° NE visible
03 Sep 6.9 05:02:39 10° ESE 05:05:03 16° E 05:07:36 10° NE visible
04 Sep 6.9 04:51:23 10° ESE 04:53:30 15° E 04:55:45 10° NE visible
05 Sep 7.0 04:40:13 10° ESE 04:41:56 13° E 04:43:49 10° NE visible
06 Sep 7.1 04:29:10 10° E 04:30:22 11° E 04:31:44 10° ENE visible
08 Sep 3.8 05:38:20 10° S 05:42:12 90° ESE 05:46:07 10° N visible
09 Sep 3.9 05:26:43 10° S 05:30:34 79° E 05:34:29 10° N visible
10 Sep 4.1 05:15:06 10° S 05:18:56 68° E 05:22:50 10° N visible
11 Sep 4.4 05:03:30 10° S 05:07:18 59° E 05:11:10 10° NNE visible
